OneWeb SL0170

operational
NORAD ID: 48067 Int'l Des: 2021-025 Owner: ONEWEBN Country: UK Constellation: oneweb
LEOCIRCULARPOLARONEWEB_TYPE

Über OneWeb SL0170

Beschreibung wird geladen...

Live-Position

3D-Globus wird geladen...

Nächste Überflüge

Höhenverlauf

Altitude vs Time

uPlot chart will show altitude changes over time

Zweizeiliger Elementsatz

1 48067U 21025AB 25259.07011194 .00000189 00000-0 48297-3 0 9992
2 48067 87.9039 14.6800 0001310 94.8669 265.2610 13.13470768217562
Epoch: 16. Sept. 2025 • Age: 9 hours

Aktueller Status

Höhe 1222.4 km
Geschwindigkeit 7.24 km/s
Subsatellitenpunkt -32.24°S, 142.26°W
Startdatum 25. März 2021
Alter 4.4 years
Typ internet

Technische Details

Klassifizierung Payload
Masse 148.00 kg
Trockenmasse 140.00 kg
Gesamtmasse 148.00 kg
Länge 1.30 m
Durchmesser 1.00 m
Spannweite 5.00 m
Form Trapezoid+2 pan
Hersteller ONEWUS
Bus-Typ ARROW
Phasenstatus In Orbit
Besitzer/Staat ONEWEBN/UK

Große Konstellationen

Loading constellations...